Location: Canet
(43.3261°N, 5.3723°E)
Time: 13:00:17
(UTC+00:00)

X-37B - Visible Passes

Search period start: 03 December 2022 00:00
Search period end: 13 December 2022 00:00
Orbit: 277 x 277 km, 45.0° (Epoch: 01 November)

Date Brightness Start Highest point End Pass type
(mag) Time Alt. Az. Time Alt. Az. Time Alt. Az.
06 Dec 2.4 17:30:49 10° S 17:31:49 13° SSE 17:31:49 13° SSE visible
07 Dec 1.6 17:30:41 10° SSW 17:32:37 23° SSE 17:32:37 23° SSE visible
08 Dec 0.7 17:30:59 10° SW 17:33:18 38° SSE 17:33:21 38° SSE visible
09 Dec -0.1 17:31:30 10° WSW 17:33:56 65° SSE 17:34:03 63° SE visible
10 Dec -0.3 17:32:09 10° WSW 17:34:36 83° NNW 17:34:43 79° NE visible
11 Dec 0.0 17:32:53 10° W 17:35:20 62° N 17:35:21 62° N visible
12 Dec 0.2 17:33:38 10° W 17:36:00 53° N 17:36:00 53° N visible
